"Time","Value","Approval","myLocation"
"2023-06-05 19:00",24.8331018337725,"Approved","OW074"
"2023-06-05 20:00",24.8691559048022,"Approved","OW074"
"2023-06-05 21:00",24.9032099758319,"Approved","OW074"
"2023-06-05 22:00",24.9262640468616,"Approved","OW074"
"2023-06-05 23:00",24.9413181178912,"Approved","OW074"
"2023-06-06 00:00",24.9313721889209,"Approved","OW074"
"2023-06-06 01:00",24.9214262599506,"Approved","OW074"
"2023-06-06 02:00",24.9134803309802,"Approved","OW074"
"2023-06-06 03:00",24.9065344020099,"Approved","OW074"
"2023-06-06 04:00",24.9005884730396,"Approved","OW074"
"2023-06-06 05:00",24.8946425440693,"Approved","OW074"
"2023-06-06 06:00",24.8896966150989,"Approved","OW074"
"2023-06-06 07:00",24.8847506861286,"Approved","OW074"
"2023-06-06 08:00",24.8798047571583,"Approved","OW074"
"2023-06-06 09:00",24.8998588281879,"Approved","OW074"
"2023-06-06 10:00",24.9209128992176,"Approved","OW074"
"2023-06-06 11:00",24.9289669702473,"Approved","OW074"
"2023-06-06 12:00",24.918021041277,"Approved","OW074"
"2023-06-06 13:00",24.9080751123066,"Approved","OW074"
"2023-06-06 14:00",24.8981291833363,"Approved","OW074"
"2023-06-06 15:00",24.891183254366,"Approved","OW074"
"2023-06-06 16:00",24.8842373253956,"Approved","OW074"
"2023-06-06 17:00",24.8772913964253,"Approved","OW074"
"2023-06-06 18:00",24.872345467455,"Approved","OW074"
"2023-06-06 19:00",24.8913995384846,"Approved","OW074"
"2023-06-06 20:00",24.9134536095143,"Approved","OW074"
"2023-06-06 21:00",24.932507680544,"Approved","OW074"
"2023-06-06 22:00",24.9495617515737,"Approved","OW074"
"2023-06-06 23:00",24.9636158226033,"Approved","OW074"
"2023-06-07 00:00",24.951669893633,"Approved","OW074"
"2023-06-07 01:00",24.9417239646627,"Approved","OW074"
"2023-06-07 02:00",24.9327780356923,"Approved","OW074"
"2023-06-07 03:00",24.925832106722,"Approved","OW074"
"2023-06-07 04:00",24.9228861777517,"Approved","OW074"
"2023-06-07 05:00",24.9439402487814,"Approved","OW074"
"2023-06-07 06:00",24.962994319811,"Approved","OW074"
"2023-06-07 07:00",24.9670483908407,"Approved","OW074"
"2023-06-07 08:00",24.9551024618704,"Approved","OW074"
"2023-06-07 09:00",24.9441565329,"Approved","OW074"
"2023-06-07 10:00",24.9352106039297,"Approved","OW074"
"2023-06-07 11:00",24.9272646749594,"Approved","OW074"
"2023-06-07 12:00",24.9203187459891,"Approved","OW074"
"2023-06-07 13:00",24.9133728170187,"Approved","OW074"
"2023-06-07 14:00",24.9194268880484,"Approved","OW074"
"2023-06-07 15:00",24.9404809590781,"Approved","OW074"
"2023-06-07 16:00",24.9395350301077,"Approved","OW074"
"2023-06-07 17:00",24.9295891011374,"Approved","OW074"
"2023-06-07 18:00",24.9216431721671,"Approved","OW074"
"2023-06-07 19:00",24.9156972431967,"Approved","OW074"
"2023-06-07 20:00",24.9187513142264,"Approved","OW074"
"2023-06-07 21:00",24.9418053852561,"Approved","OW074"
"2023-06-07 22:00",24.9628594562858,"Approved","OW074"
"2023-06-07 23:00",24.9799135273154,"Approved","OW074"
"2023-06-08 00:00",24.9709675983451,"Approved","OW074"
"2023-06-08 01:00",24.9610216693748,"Approved","OW074"
"2023-06-08 02:00",24.9530757404044,"Approved","OW074"
"2023-06-08 03:00",24.9461298114341,"Approved","OW074"
"2023-06-08 04:00",24.9401838824638,"Approved","OW074"
"2023-06-08 05:00",24.9332379534935,"Approved","OW074"
"2023-06-08 06:00",24.9292920245231,"Approved","OW074"
"2023-06-08 07:00",24.9253460955528,"Approved","OW074"
"2023-06-08 08:00",24.9204001665825,"Approved","OW074"
"2023-06-08 09:00",24.9174542376121,"Approved","OW074"
"2023-06-08 10:00",24.9375083086418,"Approved","OW074"
"2023-06-08 11:00",24.9575623796715,"Approved","OW074"
"2023-06-08 12:00",24.9646164507011,"Approved","OW074"
"2023-06-08 13:00",24.9546705217308,"Approved","OW074"
"2023-06-08 14:00",24.9437245927605,"Approved","OW074"
"2023-06-08 15:00",24.9347786637902,"Approved","OW074"
"2023-06-08 16:00",24.9258327348198,"Approved","OW074"
"2023-06-08 17:00",24.9208868058495,"Approved","OW074"
"2023-06-08 18:00",24.9159408768792,"Approved","OW074"
"2023-06-08 19:00",24.9339949479088,"Approved","OW074"
"2023-06-08 20:00",24.9590490189385,"Approved","OW074"
"2023-06-08 21:00",24.9801030899682,"Approved","OW074"
"2023-06-08 22:00",24.9951571609979,"Approved","OW074"
"2023-06-08 23:00",25.0002112320275,"Approved","OW074"
"2023-06-09 00:00",24.9872653030572,"Approved","OW074"
"2023-06-09 01:00",24.9773193740869,"Approved","OW074"
"2023-06-09 02:00",24.9673734451165,"Approved","OW074"
"2023-06-09 03:00",24.9694275161462,"Approved","OW074"
"2023-06-09 04:00",24.9894815871759,"Approved","OW074"
"2023-06-09 05:00",25.0055356582056,"Approved","OW074"
"2023-06-09 06:00",25.0085897292352,"Approved","OW074"
"2023-06-09 07:00",24.9956438002649,"Approved","OW074"
"2023-06-09 08:00",24.9866978712946,"Approved","OW074"
"2023-06-09 09:00",24.9787519423242,"Approved","OW074"
"2023-06-09 10:00",24.9718060133539,"Approved","OW074"
"2023-06-09 11:00",24.9648600843836,"Approved","OW074"
"2023-06-09 12:00",24.9589141554132,"Approved","OW074"
"2023-06-09 13:00",24.9539682264429,"Approved","OW074"
"2023-06-09 14:00",24.9490222974726,"Approved","OW074"
"2023-06-09 15:00",24.9450763685023,"Approved","OW074"
"2023-06-09 16:00",24.9401304395319,"Approved","OW074"
"2023-06-09 17:00",24.9351845105616,"Approved","OW074"
"2023-06-09 18:00",24.9302385815913,"Approved","OW074"
"2023-06-09 19:00",24.9282926526209,"Approved","OW074"
"2023-06-09 20:00",24.9243467236506,"Approved","OW074"
"2023-06-09 21:00",24.9354007946803,"Approved","OW074"
"2023-06-09 22:00",24.95845486571,"Approved","OW074"
"2023-06-09 23:00",24.9745089367396,"Approved","OW074"
"2023-06-10 00:00",24.9665630077693,"Approved","OW074"
"2023-06-10 01:00",24.959617078799,"Approved","OW074"
"2023-06-10 02:00",24.9526711498286,"Approved","OW074"
"2023-06-10 03:00",24.9467252208583,"Approved","OW074"
"2023-06-10 04:00",24.940779291888,"Approved","OW074"
"2023-06-10 05:00",24.9358333629177,"Approved","OW074"
"2023-06-10 06:00",24.9318874339473,"Approved","OW074"
"2023-06-10 07:00",24.927941504977,"Approved","OW074"
"2023-06-10 08:00",24.9249955760067,"Approved","OW074"
"2023-06-10 09:00",24.9220496470363,"Approved","OW074"
"2023-06-10 10:00",24.918103718066,"Approved","OW074"
"2023-06-10 11:00",24.9151577890957,"Approved","OW074"
"2023-06-10 12:00",24.9122118601253,"Approved","OW074"
"2023-06-10 13:00",24.909265931155,"Approved","OW074"
"2023-06-10 14:00",24.9063200021847,"Approved","OW074"
"2023-06-10 15:00",24.9043740732144,"Approved","OW074"
"2023-06-10 16:00",24.902428144244,"Approved","OW074"
"2023-06-10 17:00",24.8994822152737,"Approved","OW074"
"2023-06-10 18:00",24.8965362863034,"Approved","OW074"
"2023-06-10 19:00",24.894590357333,"Approved","OW074"
"2023-06-10 20:00",24.8926444283627,"Approved","OW074"
"2023-06-10 21:00",24.9146984993924,"Approved","OW074"
"2023-06-10 22:00",24.9387525704221,"Approved","OW074"
"2023-06-10 23:00",24.9548066414517,"Approved","OW074"
"2023-06-11 00:00",24.9488607124814,"Approved","OW074"
"2023-06-11 01:00",24.9419147835111,"Approved","OW074"
"2023-06-11 02:00",24.9349688545407,"Approved","OW074"
"2023-06-11 03:00",24.9300229255704,"Approved","OW074"
"2023-06-11 04:00",24.9250769966001,"Approved","OW074"
"2023-06-11 05:00",24.9201310676298,"Approved","OW074"
"2023-06-11 06:00",24.9161851386594,"Approved","OW074"
"2023-06-11 07:00",24.9122392096891,"Approved","OW074"
"2023-06-11 08:00",24.9092932807188,"Approved","OW074"
"2023-06-11 09:00",24.9053473517484,"Approved","OW074"
"2023-06-11 10:00",24.9014014227781,"Approved","OW074"
"2023-06-11 11:00",24.8974554938078,"Approved","OW074"
"2023-06-11 12:00",24.8945095648374,"Approved","OW074"
"2023-06-11 13:00",24.8995636358671,"Approved","OW074"
"2023-06-11 14:00",24.9216177068968,"Approved","OW074"
"2023-06-11 15:00",24.9246717779265,"Approved","OW074"
"2023-06-11 16:00",24.9177258489561,"Approved","OW074"
"2023-06-11 17:00",24.9117799199858,"Approved","OW074"
"2023-06-11 18:00",24.9058339910155,"Approved","OW074"
"2023-06-11 19:00",24.9018880620451,"Approved","OW074"
"2023-06-11 20:00",24.9109421330748,"Approved","OW074"
"2023-06-11 21:00",24.9349962041045,"Approved","OW074"
"2023-06-11 22:00",24.9550502751342,"Approved","OW074"
"2023-06-11 23:00",24.9671043461638,"Approved","OW074"
"2023-06-12 00:00",24.9601584171935,"Approved","OW074"
"2023-06-12 01:00",24.9532124882232,"Approved","OW074"
"2023-06-12 02:00",24.9472665592528,"Approved","OW074"
"2023-06-12 03:00",24.9423206302825,"Approved","OW074"
"2023-06-12 04:00",24.9373747013122,"Approved","OW074"
"2023-06-12 05:00",24.9334287723418,"Approved","OW074"
"2023-06-12 06:00",24.9284828433715,"Approved","OW074"
"2023-06-12 07:00",24.9255369144012,"Approved","OW074"
"2023-06-12 08:00",24.9215909854309,"Approved","OW074"
"2023-06-12 09:00",24.9166450564605,"Approved","OW074"
"2023-06-12 10:00",24.9126991274902,"Approved","OW074"
"2023-06-12 11:00",24.9097531985199,"Approved","OW074"
"2023-06-12 12:00",24.9048072695495,"Approved","OW074"
"2023-06-12 13:00",24.9018613405792,"Approved","OW074"
"2023-06-12 14:00",24.8979154116089,"Approved","OW074"
"2023-06-12 15:00",24.8939694826386,"Approved","OW074"
"2023-06-12 16:00",24.9090235536682,"Approved","OW074"
"2023-06-12 17:00",24.9300776246979,"Approved","OW074"
"2023-06-12 18:00",24.9271316957276,"Approved","OW074"
"2023-06-12 19:00",24.9211857667572,"Approved","OW074"
"2023-06-12 20:00",24.9152398377869,"Approved","OW074"
"2023-06-12 21:00",24.9112939088166,"Approved","OW074"
"2023-06-12 22:00",24.9073479798463,"Approved","OW074"
"2023-06-12 23:00",24.9044020508759,"Approved","OW074"
"2023-06-13 00:00",24.9004561219056,"Approved","OW074"
"2023-06-13 01:00",24.8975101929353,"Approved","OW074"
"2023-06-13 02:00",24.8945642639649,"Approved","OW074"
"2023-06-13 03:00",24.8916183349946,"Approved","OW074"
"2023-06-13 04:00",24.8886724060243,"Approved","OW074"
"2023-06-13 05:00",24.8867264770539,"Approved","OW074"
"2023-06-13 06:00",24.8847805480836,"Approved","OW074"
"2023-06-13 07:00",24.8828346191133,"Approved","OW074"
"2023-06-13 08:00",24.879888690143,"Approved","OW074"
"2023-06-13 09:00",24.8779427611726,"Approved","OW074"
"2023-06-13 10:00",24.8749968322023,"Approved","OW074"
"2023-06-13 11:00",24.871050903232,"Approved","OW074"
"2023-06-13 12:00",24.8701049742616,"Approved","OW074"
"2023-06-13 13:00",24.8911590452913,"Approved","OW074"
"2023-06-13 14:00",24.901213116321,"Approved","OW074"
"2023-06-13 15:00",24.8952671873507,"Approved","OW074"
"2023-06-13 16:00",24.8923212583803,"Approved","OW074"
"2023-06-13 17:00",24.88637532941,"Approved","OW074"
"2023-06-13 18:00",24.8814294004397,"Approved","OW074"
"2023-06-13 19:00",24.8764834714693,"Approved","OW074"
"2023-06-13 20:00",24.884537542499,"Approved","OW074"
"2023-06-13 21:00",24.9085916135287,"Approved","OW074"
"2023-06-13 22:00",24.9316456845584,"Approved","OW074"
"2023-06-13 23:00",24.931699755588,"Approved","OW074"
"2023-06-14 00:00",24.9237538266177,"Approved","OW074"
"2023-06-14 01:00",24.9178078976474,"Approved","OW074"
"2023-06-14 02:00",24.912861968677,"Approved","OW074"
"2023-06-14 03:00",24.9079160397067,"Approved","OW074"
"2023-06-14 04:00",24.9049701107364,"Approved","OW074"
"2023-06-14 05:00",24.902024181766,"Approved","OW074"
"2023-06-14 06:00",24.8990782527957,"Approved","OW074"
"2023-06-14 07:00",24.8961323238254,"Approved","OW074"
"2023-06-14 08:00",24.8931863948551,"Approved","OW074"
"2023-06-14 09:00",24.8902404658847,"Approved","OW074"
"2023-06-14 10:00",24.8882945369144,"Approved","OW074"
"2023-06-14 11:00",24.8863486079441,"Approved","OW074"
"2023-06-14 12:00",24.8834026789737,"Approved","OW074"
"2023-06-14 13:00",24.8824567500034,"Approved","OW074"
"2023-06-14 14:00",24.8805108210331,"Approved","OW074"
"2023-06-14 15:00",24.8795648920628,"Approved","OW074"
"2023-06-14 16:00",24.8776189630924,"Approved","OW074"
"2023-06-14 17:00",24.8766730341221,"Approved","OW074"
"2023-06-14 18:00",24.8747271051518,"Approved","OW074"
"2023-06-14 19:00",24.8727811761814,"Approved","OW074"
"2023-06-14 20:00",24.8708352472111,"Approved","OW074"
"2023-06-14 21:00",24.8848893182408,"Approved","OW074"
"2023-06-14 22:00",24.9099433892704,"Approved","OW074"
"2023-06-14 23:00",24.9289974603001,"Approved","OW074"
"2023-06-15 00:00",24.9250515313298,"Approved","OW074"
"2023-06-15 01:00",24.9201056023595,"Approved","OW074"
"2023-06-15 02:00",24.9151596733891,"Approved","OW074"
"2023-06-15 03:00",24.9102137444188,"Approved","OW074"
"2023-06-15 04:00",24.9062678154485,"Approved","OW074"
"2023-06-15 05:00",24.9033218864781,"Approved","OW074"
"2023-06-15 06:00",24.9003759575078,"Approved","OW074"
"2023-06-15 07:00",24.8974300285375,"Approved","OW074"
"2023-06-15 08:00",24.8954840995672,"Approved","OW074"
"2023-06-15 09:00",24.8925381705968,"Approved","OW074"
"2023-06-15 10:00",24.8905922416265,"Approved","OW074"
"2023-06-15 11:00",24.8876463126562,"Approved","OW074"
"2023-06-15 12:00",24.8847003836858,"Approved","OW074"
"2023-06-15 13:00",24.8817544547155,"Approved","OW074"
"2023-06-15 14:00",24.8798085257452,"Approved","OW074"
"2023-06-15 15:00",24.8768625967749,"Approved","OW074"
"2023-06-15 16:00",24.8749166678045,"Approved","OW074"
"2023-06-15 17:00",24.8729707388342,"Approved","OW074"
"2023-06-15 18:00",24.8700248098639,"Approved","OW074"
"2023-06-15 19:00",24.8680788808935,"Approved","OW074"
"2023-06-15 20:00",24.8751329519232,"Approved","OW074"
"2023-06-15 21:00",24.9001870229529,"Approved","OW074"
"2023-06-15 22:00",24.9242410939826,"Approved","OW074"
"2023-06-15 23:00",24.9322951650122,"Approved","OW074"
"2023-06-16 00:00",24.9273492360419,"Approved","OW074"
"2023-06-16 01:00",24.9204033070716,"Approved","OW074"
"2023-06-16 02:00",24.9154573781012,"Approved","OW074"
"2023-06-16 03:00",24.9105114491309,"Approved","OW074"
"2023-06-16 04:00",24.9065655201606,"Approved","OW074"
"2023-06-16 05:00",24.9016195911902,"Approved","OW074"
"2023-06-16 06:00",24.8986736622199,"Approved","OW074"
"2023-06-16 07:00",24.8947277332496,"Approved","OW074"
"2023-06-16 08:00",24.8917818042793,"Approved","OW074"
"2023-06-16 09:00",24.8878358753089,"Approved","OW074"
"2023-06-16 10:00",24.8828899463386,"Approved","OW074"
"2023-06-16 11:00",24.8799440173683,"Approved","OW074"
"2023-06-16 12:00",24.8759980883979,"Approved","OW074"
"2023-06-16 13:00",24.8730521594276,"Approved","OW074"
"2023-06-16 14:00",24.8711062304573,"Approved","OW074"
"2023-06-16 15:00",24.868160301487,"Approved","OW074"
"2023-06-16 16:00",24.8672143725166,"Approved","OW074"
"2023-06-16 17:00",24.8642684435463,"Approved","OW074"
"2023-06-16 18:00",24.862322514576,"Approved","OW074"
"2023-06-16 19:00",24.8603765856056,"Approved","OW074"
"2023-06-16 20:00",24.8654306566353,"Approved","OW074"
"2023-06-16 21:00",24.889484727665,"Approved","OW074"
"2023-06-16 22:00",24.9115387986946,"Approved","OW074"
"2023-06-16 23:00",24.9275928697243,"Approved","OW074"
"2023-06-17 00:00",24.921646940754,"Approved","OW074"
"2023-06-17 01:00",24.9147010117837,"Approved","OW074"
"2023-06-17 02:00",24.9067550828133,"Approved","OW074"
"2023-06-17 03:00",24.901809153843,"Approved","OW074"
"2023-06-17 04:00",24.8968632248727,"Approved","OW074"
"2023-06-17 05:00",24.8929172959023,"Approved","OW074"
"2023-06-17 06:00",24.888971366932,"Approved","OW074"
"2023-06-17 07:00",24.8860254379617,"Approved","OW074"
"2023-06-17 08:00",24.8830795089914,"Approved","OW074"
"2023-06-17 09:00",24.879133580021,"Approved","OW074"
"2023-06-17 10:00",24.8741876510507,"Approved","OW074"
"2023-06-17 11:00",24.8702417220804,"Approved","OW074"
"2023-06-17 12:00",24.86629579311,"Approved","OW074"
"2023-06-17 13:00",24.8823498641397,"Approved","OW074"
"2023-06-17 14:00",24.9034039351694,"Approved","OW074"
"2023-06-17 15:00",24.9004580061991,"Approved","OW074"
"2023-06-17 16:00",24.8935120772287,"Approved","OW074"
"2023-06-17 17:00",24.8875661482584,"Approved","OW074"
"2023-06-17 18:00",24.8826202192881,"Approved","OW074"
"2023-06-17 19:00",24.8776742903177,"Approved","OW074"
"2023-06-17 20:00",24.8847283613474,"Approved","OW074"
"2023-06-17 21:00",24.9067824323771,"Approved","OW074"
"2023-06-17 22:00",24.9268365034068,"Approved","OW074"
"2023-06-17 23:00",24.9328905744364,"Approved","OW074"
"2023-06-18 00:00",24.9249446454661,"Approved","OW074"
"2023-06-18 01:00",24.9179987164958,"Approved","OW074"
"2023-06-18 02:00",24.9140527875254,"Approved","OW074"
"2023-06-18 03:00",24.9101068585551,"Approved","OW074"
"2023-06-18 04:00",24.9061609295848,"Approved","OW074"
"2023-06-18 05:00",24.9022150006144,"Approved","OW074"
"2023-06-18 06:00",24.8972690716441,"Approved","OW074"
"2023-06-18 07:00",24.8943231426738,"Approved","OW074"
"2023-06-18 08:00",24.8913772137035,"Approved","OW074"
"2023-06-18 09:00",24.8884312847331,"Approved","OW074"
"2023-06-18 10:00",24.8854853557628,"Approved","OW074"
"2023-06-18 11:00",24.8825394267925,"Approved","OW074"
"2023-06-18 12:00",24.8795934978221,"Approved","OW074"
"2023-06-18 13:00",24.8776475688518,"Approved","OW074"
"2023-06-18 14:00",24.8747016398815,"Approved","OW074"
"2023-06-18 15:00",24.8947557109112,"Approved","OW074"
"2023-06-18 16:00",24.9138097819408,"Approved","OW074"
"2023-06-18 17:00",24.9118638529705,"Approved","OW074"
"2023-06-18 18:00",24.9079179240002,"Approved","OW074"
"2023-06-18 19:00",24.9029719950298,"Approved","OW074"
"2023-06-18 20:00",24.8980260660595,"Approved","OW074"
"2023-06-18 21:00",24.8950801370892,"Approved","OW074"
"2023-06-18 22:00",24.9161342081188,"Approved","OW074"
"2023-06-18 23:00",24.9371882791485,"Approved","OW074"
"2023-06-19 00:00",24.9422423501782,"Approved","OW074"
"2023-06-19 01:00",24.9352964212079,"Approved","OW074"
"2023-06-19 02:00",24.9283504922375,"Approved","OW074"
"2023-06-19 03:00",24.9224045632672,"Approved","OW074"
"2023-06-19 04:00",24.9164586342969,"Approved","OW074"
"2023-06-19 05:00",24.9125127053265,"Approved","OW074"
"2023-06-19 06:00",24.9075667763562,"Approved","OW074"
"2023-06-19 07:00",24.9046208473859,"Approved","OW074"
"2023-06-19 08:00",24.9016749184156,"Approved","OW074"
"2023-06-19 09:00",24.8977289894452,"Approved","OW074"
"2023-06-19 10:00",24.8947830604749,"Approved","OW074"
"2023-06-19 11:00",24.8918371315046,"Approved","OW074"
"2023-06-19 12:00",24.8888912025342,"Approved","OW074"
"2023-06-19 13:00",24.8859452735639,"Approved","OW074"
"2023-06-19 14:00",24.8839993445936,"Approved","OW074"
"2023-06-19 15:00",24.8830534156232,"Approved","OW074"
"2023-06-19 16:00",24.8821074866529,"Approved","OW074"
"2023-06-19 17:00",24.8811615576826,"Approved","OW074"
"2023-06-19 18:00",24.8802156287123,"Approved","OW074"
"2023-06-19 19:00",24.8802696997419,"Approved","OW074"
"2023-06-19 20:00",24.8803237707716,"Approved","OW074"
"2023-06-19 21:00",24.8803778418013,"Approved","OW074"
"2023-06-19 22:00",24.9044319128309,"Approved","OW074"
"2023-06-19 23:00",24.9284859838606,"Approved","OW074"
"2023-06-20 00:00",24.9335400548903,"Approved","OW074"
"2023-06-20 01:00",24.92959412592,"Approved","OW074"
"2023-06-20 02:00",24.9236481969496,"Approved","OW074"
"2023-06-20 03:00",24.9197022679793,"Approved","OW074"
"2023-06-20 04:00",24.915756339009,"Approved","OW074"
"2023-06-20 05:00",24.9108104100386,"Approved","OW074"
"2023-06-20 06:00",24.9078644810683,"Approved","OW074"
"2023-06-20 07:00",24.905918552098,"Approved","OW074"
"2023-06-20 08:00",24.9029726231277,"Approved","OW074"
"2023-06-20 09:00",24.9000266941573,"Approved","OW074"
"2023-06-20 10:00",24.897080765187,"Approved","OW074"
"2023-06-20 11:00",24.8951348362167,"Approved","OW074"
"2023-06-20 12:00",24.8921889072463,"Approved","OW074"
"2023-06-20 13:00",24.890242978276,"Approved","OW074"
"2023-06-20 14:00",24.8892970493057,"Approved","OW074"
"2023-06-20 15:00",24.8873511203353,"Approved","OW074"
"2023-06-20 16:00",24.905405191365,"Approved","OW074"
"2023-06-20 17:00",24.9264592623947,"Approved","OW074"
"2023-06-20 18:00",24.9245133334244,"Approved","OW074"
"2023-06-20 19:00",24.920567404454,"Approved","OW074"
"2023-06-20 20:00",24.9166214754837,"Approved","OW074"
"2023-06-20 21:00",24.9116755465134,"Approved","OW074"
"2023-06-20 22:00",24.908729617543,"Approved","OW074"
"2023-06-20 23:00",24.9227836885727,"Approved","OW074"
"2023-06-21 00:00",24.9448377596024,"Approved","OW074"
"2023-06-21 01:00",24.9558918306321,"Approved","OW074"
"2023-06-21 02:00",24.9499459016617,"Approved","OW074"
"2023-06-21 03:00",24.9429999726914,"Approved","OW074"
"2023-06-21 04:00",24.9370540437211,"Approved","OW074"
"2023-06-21 05:00",24.9321081147507,"Approved","OW074"
"2023-06-21 06:00",24.9461621857804,"Approved","OW074"
"2023-06-21 07:00",24.9662162568101,"Approved","OW074"
"2023-06-21 08:00",24.9622703278398,"Approved","OW074"
"2023-06-21 09:00",24.9563243988694,"Approved","OW074"
"2023-06-21 10:00",24.9503784698991,"Approved","OW074"
"2023-06-21 11:00",24.9444325409288,"Approved","OW074"
"2023-06-21 12:00",24.9384866119584,"Approved","OW074"
"2023-06-21 13:00",24.9335406829881,"Approved","OW074"
"2023-06-21 14:00",24.9285947540178,"Approved","OW074"
"2023-06-21 15:00",24.9246488250474,"Approved","OW074"
"2023-06-21 16:00",24.9217028960771,"Approved","OW074"
"2023-06-21 17:00",24.9177569671068,"Approved","OW074"
"2023-06-21 18:00",24.9128110381365,"Approved","OW074"
"2023-06-21 19:00",24.9228651091661,"Approved","OW074"
"2023-06-21 20:00",24.9459191801958,"Approved","OW074"
"2023-06-21 21:00",24.9619732512255,"Approved","OW074"
"2023-06-21 22:00",24.9580273222551,"Approved","OW074"
"2023-06-21 23:00",24.9520813932848,"Approved","OW074"
"2023-06-22 00:00",24.9461354643145,"Approved","OW074"
"2023-06-22 01:00",24.9411895353442,"Approved","OW074"
"2023-06-22 02:00",24.9522436063738,"Approved","OW074"
"2023-06-22 03:00",24.9732976774035,"Approved","OW074"
"2023-06-22 04:00",24.9863517484332,"Approved","OW074"
"2023-06-22 05:00",24.9794058194628,"Approved","OW074"
"2023-06-22 06:00",24.9714598904925,"Approved","OW074"
"2023-06-22 07:00",24.9645139615222,"Approved","OW074"
"2023-06-22 08:00",24.9575680325519,"Approved","OW074"
"2023-06-22 09:00",24.9516221035815,"Approved","OW074"
"2023-06-22 10:00",24.9626761746112,"Approved","OW074"
"2023-06-22 11:00",24.9817302456409,"Approved","OW074"
"2023-06-22 12:00",24.9867843166705,"Approved","OW074"
"2023-06-22 13:00",24.9778383877002,"Approved","OW074"
"2023-06-22 14:00",24.9688924587299,"Approved","OW074"
"2023-06-22 15:00",24.9609465297595,"Approved","OW074"
"2023-06-22 16:00",24.9540006007892,"Approved","OW074"
"2023-06-22 17:00",24.9480546718189,"Approved","OW074"
"2023-06-22 18:00",24.9431087428486,"Approved","OW074"
"2023-06-22 19:00",24.9391628138782,"Approved","OW074"
"2023-06-22 20:00",24.9552168849079,"Approved","OW074"
"2023-06-22 21:00",24.9772709559376,"Approved","OW074"
"2023-06-22 22:00",24.9973250269672,"Approved","OW074"
"2023-06-22 23:00",25.0063790979969,"Approved","OW074"
"2023-06-23 00:00",24.9984331690266,"Approved","OW074"
"2023-06-23 01:00",24.9894872400563,"Approved","OW074"
"2023-06-23 02:00",24.9815413110859,"Approved","OW074"
"2023-06-23 03:00",24.9755953821156,"Approved","OW074"
"2023-06-23 04:00",24.9706494531453,"Approved","OW074"
"2023-06-23 05:00",24.9657035241749,"Approved","OW074"
"2023-06-23 06:00",24.9607575952046,"Approved","OW074"
"2023-06-23 07:00",24.9568116662343,"Approved","OW074"
"2023-06-23 08:00",24.951865737264,"Approved","OW074"
"2023-06-23 09:00",24.9479198082936,"Approved","OW074"
"2023-06-23 10:00",24.9429738793233,"Approved","OW074"
"2023-06-23 11:00",24.939027950353,"Approved","OW074"
"2023-06-23 12:00",24.9340820213826,"Approved","OW074"
"2023-06-23 13:00",24.9361360924123,"Approved","OW074"
"2023-06-23 14:00",24.957190163442,"Approved","OW074"